owner,sensor,date,latitude,longitude,vertical_datum,sea_water_practical_salinity,qcFlag 
DISL,ioos:station:DISL:KATA:1,2011-12-01T00:00:00Z,30.2583,-88.2131,4.351,26.94,1111122 
DISL,ioos:station:DISL:KATA:1,2011-12-01T00:30:00Z,30.2583,-88.2131,4.353,27.42,1111122 
DISL,ioos:station:DISL:KATA:1,2011-12-01T01:00:00Z,30.2583,-88.2131,4.366,27.37,1111122 
DISL,ioos:station:DISL:KATA:1,2011-12-01T01:30:00Z,30.2583,-88.2131,4.377,27.31,1111122 
DISL,ioos:station:DISL:KATA:1,2011-12-01T02:00:00Z,30.2583,-88.2131,4.383,27.25,1111122 
DISL,ioos:station:DISL:KATA:1,2011-12-01T02:30:00Z,30.2583,-88.2131,4.391,27.18,1111122 
DISL,ioos:station:DISL:KATA:1,2011-12-01T03:00:00Z,30.2583,-88.2131,4.391,27.12,1111122 
DISL,ioos:station:DISL:KATA:1,2011-12-01T03:30:00Z,30.2583,-88.2131,4.408,27.05,1111122 
DISL,ioos:station:DISL:KATA:1,2011-12-01T04:00:00Z,30.2583,-88.2131,4.421,26.99,1111122 
DISL,ioos:station:DISL:KATA:1,2011-12-01T04:30:00Z,30.2583,-88.2131,4.425,26.91,1111122 
DISL,ioos:station:DISL:KATA:1,2011-12-01T05:00:00Z,30.2583,-88.2131,4.429,26.88,1111122 
DISL,ioos:station:DISL:KATA:1,2011-12-01T05:30:00Z,30.2583,-88.2131,4.422,26.88,1111122 
DISL,ioos:station:DISL:KATA:1,2011-12-01T06:00:00Z,30.2583,-88.2131,4.419,26.89,1111122 
DISL,ioos:station:DISL:KATA:1,2011-12-01T06:30:00Z,30.2583,-88.2131,4.421,26.9,1111122 
DISL,ioos:station:DISL:KATA:1,2011-12-01T07:00:00Z,30.2583,-88.2131,4.429,26.85,1111122 
DISL,ioos:station:DISL:KATA:1,2011-12-01T07:30:00Z,30.2583,-88.2131,4.43,26.81,1111122 
DISL,ioos:station:DISL:KATA:1,2011-12-01T08:00:00Z,30.2583,-88.2131,4.42,26.88,1111122 
DISL,ioos:station:DISL:KATA:1,2011-12-01T08:30:00Z,30.2583,-88.2131,4.404,26.83,1111122 
DISL,ioos:station:DISL:KATA:1,2011-12-01T09:00:00Z,30.2583,-88.2131,4.375,26.26,1111122 
DISL,ioos:station:DISL:KATA:1,2011-12-01T09:30:00Z,30.2583,-88.2131,4.366,26.27,1111122 
DISL,ioos:station:DISL:KATA:1,2011-12-01T10:00:00Z,30.2583,-88.2131,4.346,26.41,1111122 
DISL,ioos:station:DISL:KATA:1,2011-12-01T10:30:00Z,30.2583,-88.2131,4.33,26.86,1111122 
DISL,ioos:station:DISL:KATA:1,2011-12-01T11:00:00Z,30.2583,-88.2131,4.314,27.01,1111122 
DISL,ioos:station:DISL:KATA:1,2011-12-01T11:30:00Z,30.2583,-88.2131,4.293,27.05,1111122 
DISL,ioos:station:DISL:KATA:1,2011-12-01T12:00:00Z,30.2583,-88.2131,4.276,27.12,1111122 
DISL,ioos:station:DISL:KATA:1,2011-12-01T12:30:00Z,30.2583,-88.2131,4.265,27.27,1111122 
DISL,ioos:station:DISL:KATA:1,2011-12-01T13:00:00Z,30.2583,-88.2131,4.254,27.19,1111122 
DISL,ioos:station:DISL:KATA:1,2011-12-01T13:30:00Z,30.2583,-88.2131,4.237,27.13,1111122 
DISL,ioos:station:DISL:KATA:1,2011-12-01T14:00:00Z,30.2583,-88.2131,4.221,27.14,1111122 
DISL,ioos:station:DISL:KATA:1,2011-12-01T14:30:00Z,30.2583,-88.2131,4.204,27.04,1111122 
DISL,ioos:station:DISL:KATA:1,2011-12-01T15:00:00Z,30.2583,-88.2131,4.179,26.76,1111122 
DISL,ioos:station:DISL:KATA:1,2011-12-01T15:30:00Z,30.2583,-88.2131,4.159,26.9,1111122 
DISL,ioos:station:DISL:KATA:1,2011-12-01T16:00:00Z,30.2583,-88.2131,4.128,26.97,1111122 
DISL,ioos:station:DISL:KATA:1,2011-12-01T16:30:00Z,30.2583,-88.2131,4.12,27.09,1111122 
DISL,ioos:station:DISL:KATA:1,2011-12-01T17:00:00Z,30.2583,-88.2131,4.131,27.13,1111122 
DISL,ioos:station:DISL:KATA:1,2011-12-01T17:30:00Z,30.2583,-88.2131,4.137,27.2,1111122 
DISL,ioos:station:DISL:KATA:1,2011-12-01T18:00:00Z,30.2583,-88.2131,4.158,27.2,1111122 
DISL,ioos:station:DISL:KATA:1,2011-12-01T18:30:00Z,30.2583,-88.2131,4.178,27.27,1111122 
DISL,ioos:station:DISL:KATA:1,2011-12-01T19:00:00Z,30.2583,-88.2131,4.201,27.28,1111122 
DISL,ioos:station:DISL:KATA:1,2011-12-01T19:30:00Z,30.2583,-88.2131,4.225,27.28,1111122 
DISL,ioos:station:DISL:KATA:1,2011-12-01T20:00:00Z,30.2583,-88.2131,4.251,27.26,1111122 
DISL,ioos:station:DISL:KATA:1,2011-12-01T20:30:00Z,30.2583,-88.2131,4.271,27.11,1111122 
DISL,ioos:station:DISL:KATA:1,2011-12-01T21:00:00Z,30.2583,-88.2131,4.292,27.17,1111122 
DISL,ioos:station:DISL:KATA:1,2011-12-01T21:30:00Z,30.2583,-88.2131,4.307,27.02,1111122 
DISL,ioos:station:DISL:KATA:1,2011-12-01T22:00:00Z,30.2583,-88.2131,4.311,26.91,1111122 
DISL,ioos:station:DISL:KATA:1,2011-12-01T22:30:00Z,30.2583,-88.2131,4.319,26.89,1111122 
DISL,ioos:station:DISL:KATA:1,2011-12-01T23:00:00Z,30.2583,-88.2131,4.321,27.1,1111122 
DISL,ioos:station:DISL:KATA:1,2011-12-01T23:30:00Z,30.2583,-88.2131,4.318,27.1,1111122 
DISL,ioos:station:DISL:KATA:1,2011-12-02T00:00:00Z,30.2583,-88.2131,4.313,27.09,1111122 
DISL,ioos:station:DISL:KATA:1,2011-12-02T00:30:00Z,30.2583,-88.2131,4.317,27.11,1111122 
DISL,ioos:station:DISL:KATA:1,2011-12-02T01:00:00Z,30.2583,-88.2131,4.324,27.12,1111122 
DISL,ioos:station:DISL:KATA:1,2011-12-02T01:30:00Z,30.2583,-88.2131,4.336,27.11,1111122 
DISL,ioos:station:DISL:KATA:1,2011-12-02T02:00:00Z,30.2583,-88.2131,4.343,27.1,1111122 
DISL,ioos:station:DISL:KATA:1,2011-12-02T02:30:00Z,30.2583,-88.2131,4.356,27.1,1111122 
DISL,ioos:station:DISL:KATA:1,2011-12-02T03:00:00Z,30.2583,-88.2131,4.353,27.1,1111122 
DISL,ioos:station:DISL:KATA:1,2011-12-02T03:30:00Z,30.2583,-88.2131,4.368,27.1,1111122 
DISL,ioos:station:DISL:KATA:1,2011-12-02T04:00:00Z,30.2583,-88.2131,4.371,27.12,1111122 
DISL,ioos:station:DISL:KATA:1,2011-12-02T04:30:00Z,30.2583,-88.2131,4.381,27.14,1111122 
DISL,ioos:station:DISL:KATA:1,2011-12-02T05:00:00Z,30.2583,-88.2131,4.376,26.82,1111122 
DISL,ioos:station:DISL:KATA:1,2011-12-02T05:30:00Z,30.2583,-88.2131,4.363,27.15,1111122 
DISL,ioos:station:DISL:KATA:1,2011-12-02T06:00:00Z,30.2583,-88.2131,4.363,27.05,1111122 
DISL,ioos:station:DISL:KATA:1,2011-12-02T06:30:00Z,30.2583,-88.2131,4.376,27.01,1111122 
DISL,ioos:station:DISL:KATA:1,2011-12-02T07:00:00Z,30.2583,-88.2131,4.394,27.16,1111122 
DISL,ioos:station:DISL:KATA:1,2011-12-02T07:30:00Z,30.2583,-88.2131,4.392,27.15,1111122 
DISL,ioos:station:DISL:KATA:1,2011-12-02T08:00:00Z,30.2583,-88.2131,4.382,27.14,1111122 
DISL,ioos:station:DISL:KATA:1,2011-12-02T08:30:00Z,30.2583,-88.2131,4.361,27.15,1111122 
DISL,ioos:station:DISL:KATA:1,2011-12-02T09:00:00Z,30.2583,-88.2131,4.353,27.05,1111122 
DISL,ioos:station:DISL:KATA:1,2011-12-02T09:30:00Z,30.2583,-88.2131,4.333,27.17,1111122 
DISL,ioos:station:DISL:KATA:1,2011-12-02T10:00:00Z,30.2583,-88.2131,4.328,27.1,1111122 
DISL,ioos:station:DISL:KATA:1,2011-12-02T10:30:00Z,30.2583,-88.2131,4.324,27.25,1111122 
DISL,ioos:station:DISL:KATA:1,2011-12-02T11:00:00Z,30.2583,-88.2131,4.315,27.24,1111122 
DISL,ioos:station:DISL:KATA:1,2011-12-02T11:30:00Z,30.2583,-88.2131,4.307,27.24,1111122 
DISL,ioos:station:DISL:KATA:1,2011-12-02T12:00:00Z,30.2583,-88.2131,4.293,27.25,1111122 
DISL,ioos:station:DISL:KATA:1,2011-12-02T12:30:00Z,30.2583,-88.2131,4.291,27.24,1111122 
DISL,ioos:station:DISL:KATA:1,2011-12-02T13:00:00Z,30.2583,-88.2131,4.281,27.25,1111122 
DISL,ioos:station:DISL:KATA:1,2011-12-02T13:30:00Z,30.2583,-88.2131,4.255,27.25,1111122 
DISL,ioos:station:DISL:KATA:1,2011-12-02T14:00:00Z,30.2583,-88.2131,4.219,27.25,1111122 
DISL,ioos:station:DISL:KATA:1,2011-12-02T14:30:00Z,30.2583,-88.2131,4.193,27.25,1111122 
DISL,ioos:station:DISL:KATA:1,2011-12-02T15:00:00Z,30.2583,-88.2131,4.188,27.26,1111122 
DISL,ioos:station:DISL:KATA:1,2011-12-02T15:30:00Z,30.2583,-88.2131,4.185,27.08,1111122 
DISL,ioos:station:DISL:KATA:1,2011-12-02T16:00:00Z,30.2583,-88.2131,4.201,27.27,1111122 
DISL,ioos:station:DISL:KATA:1,2011-12-02T16:30:00Z,30.2583,-88.2131,4.231,27.31,1111122 
DISL,ioos:station:DISL:KATA:1,2011-12-02T17:00:00Z,30.2583,-88.2131,4.246,27.34,1111122 
DISL,ioos:station:DISL:KATA:1,2011-12-02T17:30:00Z,30.2583,-88.2131,4.269,27.37,1111122 
DISL,ioos:station:DISL:KATA:1,2011-12-02T18:00:00Z,30.2583,-88.2131,4.295,27.44,1111122 
DISL,ioos:station:DISL:KATA:1,2011-12-02T18:30:00Z,30.2583,-88.2131,4.314,27.5,1111122 
DISL,ioos:station:DISL:KATA:1,2011-12-02T19:00:00Z,30.2583,-88.2131,4.326,27.24,1111122 
DISL,ioos:station:DISL:KATA:1,2011-12-02T19:30:00Z,30.2583,-88.2131,4.336,27.52,1111122 
DISL,ioos:station:DISL:KATA:1,2011-12-02T20:00:00Z,30.2583,-88.2131,4.34,27.62,1111122 
DISL,ioos:station:DISL:KATA:1,2011-12-02T20:30:00Z,30.2583,-88.2131,4.34,27.62,1111122 
DISL,ioos:station:DISL:KATA:1,2011-12-02T21:00:00Z,30.2583,-88.2131,4.346,27.51,1111122 
DISL,ioos:station:DISL:KATA:1,2011-12-02T21:30:00Z,30.2583,-88.2131,4.345,27.62,1111122 
DISL,ioos:station:DISL:KATA:1,2011-12-02T22:00:00Z,30.2583,-88.2131,4.349,27.65,1111122 
DISL,ioos:station:DISL:KATA:1,2011-12-02T22:30:00Z,30.2583,-88.2131,4.35,27.62,1111122 
DISL,ioos:station:DISL:KATA:1,2011-12-02T23:00:00Z,30.2583,-88.2131,4.36,27.46,1111122 
DISL,ioos:station:DISL:KATA:1,2011-12-02T23:30:00Z,30.2583,-88.2131,4.375,27.71,1111122 
DISL,ioos:station:DISL:KATA:1,2011-12-03T00:00:00Z,30.2583,-88.2131,4.385,27.82,1111122 
DISL,ioos:station:DISL:KATA:1,2011-12-03T00:30:00Z,30.2583,-88.2131,4.395,27.41,1111122 
DISL,ioos:station:DISL:KATA:1,2011-12-03T01:00:00Z,30.2583,-88.2131,4.406,27.53,1111122 
DISL,ioos:station:DISL:KATA:1,2011-12-03T01:30:00Z,30.2583,-88.2131,4.412,27.83,1111122 
DISL,ioos:station:DISL:KATA:1,2011-12-03T02:00:00Z,30.2583,-88.2131,4.415,27.29,1111122 
DISL,ioos:station:DISL:KATA:1,2011-12-03T02:30:00Z,30.2583,-88.2131,4.414,27.84,1111122 
DISL,ioos:station:DISL:KATA:1,2011-12-03T03:00:00Z,30.2583,-88.2131,4.404,27.85,1111122 
DISL,ioos:station:DISL:KATA:1,2011-12-03T03:30:00Z,30.2583,-88.2131,4.4,27.86,1111122 
DISL,ioos:station:DISL:KATA:1,2011-12-03T04:00:00Z,30.2583,-88.2131,4.39,27.87,1111122 
DISL,ioos:station:DISL:KATA:1,2011-12-03T04:30:00Z,30.2583,-88.2131,4.374,27.89,1111122 
DISL,ioos:station:DISL:KATA:1,2011-12-03T05:00:00Z,30.2583,-88.2131,4.372,27.9,1111122 
DISL,ioos:station:DISL:KATA:1,2011-12-03T05:30:00Z,30.2583,-88.2131,4.362,27.91,1111122 
DISL,ioos:station:DISL:KATA:1,2011-12-03T06:00:00Z,30.2583,-88.2131,4.348,27.61,1111122 
DISL,ioos:station:DISL:KATA:1,2011-12-03T06:30:00Z,30.2583,-88.2131,4.333,27.9,1111122 
DISL,ioos:station:DISL:KATA:1,2011-12-03T07:00:00Z,30.2583,-88.2131,4.32,27.92,1111122 
DISL,ioos:station:DISL:KATA:1,2011-12-03T07:30:00Z,30.2583,-88.2131,4.308,27.93,1111122 
DISL,ioos:station:DISL:KATA:1,2011-12-03T08:00:00Z,30.2583,-88.2131,4.3,27.77,1111122 
DISL,ioos:station:DISL:KATA:1,2011-12-03T08:30:00Z,30.2583,-88.2131,4.273,27.95,1111122 
DISL,ioos:station:DISL:KATA:1,2011-12-03T09:00:00Z,30.2583,-88.2131,4.265,27.82,1111122 
DISL,ioos:station:DISL:KATA:1,2011-12-03T09:30:00Z,30.2583,-88.2131,4.261,27.97,1111122 
DISL,ioos:station:DISL:KATA:1,2011-12-03T10:00:00Z,30.2583,-88.2131,4.264,27.52,1111122 
DISL,ioos:station:DISL:KATA:1,2011-12-03T10:30:00Z,30.2583,-88.2131,4.272,27.99,1111122 
DISL,ioos:station:DISL:KATA:1,2011-12-03T11:00:00Z,30.2583,-88.2131,4.279,28.04,1111122 
DISL,ioos:station:DISL:KATA:1,2011-12-03T11:30:00Z,30.2583,-88.2131,4.285,28.1,1111122 
DISL,ioos:station:DISL:KATA:1,2011-12-03T12:00:00Z,30.2583,-88.2131,4.286,28.02,1111122 
DISL,ioos:station:DISL:KATA:1,2011-12-03T12:30:00Z,30.2583,-88.2131,4.279,28.16,1111122 
DISL,ioos:station:DISL:KATA:1,2011-12-03T13:00:00Z,30.2583,-88.2131,4.28,28.31,1111122 
DISL,ioos:station:DISL:KATA:1,2011-12-03T13:30:00Z,30.2583,-88.2131,4.273,28.36,1111122 
DISL,ioos:station:DISL:KATA:1,2011-12-03T14:00:00Z,30.2583,-88.2131,4.279,28.41,1111122 
DISL,ioos:station:DISL:KATA:1,2011-12-03T14:30:00Z,30.2583,-88.2131,4.283,28.5,1111122 
DISL,ioos:station:DISL:KATA:1,2011-12-03T15:00:00Z,30.2583,-88.2131,4.296,28.29,1111122 
DISL,ioos:station:DISL:KATA:1,2011-12-03T15:30:00Z,30.2583,-88.2131,4.304,28.62,1111122 
DISL,ioos:station:DISL:KATA:1,2011-12-03T16:00:00Z,30.2583,-88.2131,4.311,28.63,1111122 
DISL,ioos:station:DISL:KATA:1,2011-12-03T16:30:00Z,30.2583,-88.2131,4.325,28.7,1111122 
DISL,ioos:station:DISL:KATA:1,2011-12-03T17:00:00Z,30.2583,-88.2131,4.337,28.71,1111122 
DISL,ioos:station:DISL:KATA:1,2011-12-03T17:30:00Z,30.2583,-88.2131,4.35,28.8,1111122 
DISL,ioos:station:DISL:KATA:1,2011-12-03T18:00:00Z,30.2583,-88.2131,4.363,28.83,1111122 
DISL,ioos:station:DISL:KATA:1,2011-12-03T18:30:00Z,30.2583,-88.2131,4.369,28.86,1111122 
DISL,ioos:station:DISL:KATA:1,2011-12-03T19:00:00Z,30.2583,-88.2131,4.381,28.46,1111122 
DISL,ioos:station:DISL:KATA:1,2011-12-03T19:30:00Z,30.2583,-88.2131,4.399,28.9,1111122 
DISL,ioos:station:DISL:KATA:1,2011-12-03T20:00:00Z,30.2583,-88.2131,4.413,28.91,1111122 
DISL,ioos:station:DISL:KATA:1,2011-12-03T20:30:00Z,30.2583,-88.2131,4.444,28.91,1111122 
DISL,ioos:station:DISL:KATA:1,2011-12-03T21:00:00Z,30.2583,-88.2131,4.462,28.88,1111122 
DISL,ioos:station:DISL:KATA:1,2011-12-03T21:30:00Z,30.2583,-88.2131,4.481,28.89,1111122 
DISL,ioos:station:DISL:KATA:1,2011-12-03T22:00:00Z,30.2583,-88.2131,4.5,28.74,1111122 
DISL,ioos:station:DISL:KATA:1,2011-12-03T22:30:00Z,30.2583,-88.2131,4.513,28.82,1111122 
DISL,ioos:station:DISL:KATA:1,2011-12-03T23:00:00Z,30.2583,-88.2131,4.519,28.75,1111122 
DISL,ioos:station:DISL:KATA:1,2011-12-03T23:30:00Z,30.2583,-88.2131,4.529,28.74,1111122 
DISL,ioos:station:DISL:KATA:1,2011-12-04T00:00:00Z,30.2583,-88.2131,4.53,28.59,1111122 
DISL,ioos:station:DISL:KATA:1,2011-12-04T00:30:00Z,30.2583,-88.2131,4.532,28.69,1111122 
DISL,ioos:station:DISL:KATA:1,2011-12-04T01:00:00Z,30.2583,-88.2131,4.531,28.62,1111122 
DISL,ioos:station:DISL:KATA:1,2011-12-04T01:30:00Z,30.2583,-88.2131,4.542,28.75,1111122 
DISL,ioos:station:DISL:KATA:1,2011-12-04T02:00:00Z,30.2583,-88.2131,4.539,28.76,1111122 
DISL,ioos:station:DISL:KATA:1,2011-12-04T02:30:00Z,30.2583,-88.2131,4.521,28.74,1111122 
DISL,ioos:station:DISL:KATA:1,2011-12-04T03:00:00Z,30.2583,-88.2131,4.527,28.76,1111122 
DISL,ioos:station:DISL:KATA:1,2011-12-04T03:30:00Z,30.2583,-88.2131,4.523,28.56,1111122 
DISL,ioos:station:DISL:KATA:1,2011-12-04T04:00:00Z,30.2583,-88.2131,4.503,28.73,1111122 
DISL,ioos:station:DISL:KATA:1,2011-12-04T04:30:00Z,30.2583,-88.2131,4.507,28.77,1111122 
DISL,ioos:station:DISL:KATA:1,2011-12-04T05:00:00Z,30.2583,-88.2131,4.5,28.77,1111122 
DISL,ioos:station:DISL:KATA:1,2011-12-04T05:30:00Z,30.2583,-88.2131,4.498,28.89,1111122 
DISL,ioos:station:DISL:KATA:1,2011-12-04T06:00:00Z,30.2583,-88.2131,4.489,28.9,1111122 
DISL,ioos:station:DISL:KATA:1,2011-12-04T06:30:00Z,30.2583,-88.2131,4.47,28.93,1111122 
DISL,ioos:station:DISL:KATA:1,2011-12-04T07:00:00Z,30.2583,-88.2131,4.459,28.61,1111122 
DISL,ioos:station:DISL:KATA:1,2011-12-04T07:30:00Z,30.2583,-88.2131,4.433,28.87,1111122 
DISL,ioos:station:DISL:KATA:1,2011-12-04T08:00:00Z,30.2583,-88.2131,4.403,28.98,1111122 
DISL,ioos:station:DISL:KATA:1,2011-12-04T08:30:00Z,30.2583,-88.2131,4.393,28.96,1111122 
DISL,ioos:station:DISL:KATA:1,2011-12-04T09:00:00Z,30.2583,-88.2131,4.406,28.97,1111122 
DISL,ioos:station:DISL:KATA:1,2011-12-04T09:30:00Z,30.2583,-88.2131,4.407,28.97,1111122 
DISL,ioos:station:DISL:KATA:1,2011-12-04T10:00:00Z,30.2583,-88.2131,4.415,28.89,1111122 
DISL,ioos:station:DISL:KATA:1,2011-12-04T10:30:00Z,30.2583,-88.2131,4.429,28.9,1111122 
DISL,ioos:station:DISL:KATA:1,2011-12-04T11:00:00Z,30.2583,-88.2131,4.408,28.88,1111122 
DISL,ioos:station:DISL:KATA:1,2011-12-04T11:30:00Z,30.2583,-88.2131,4.4,28.9,1111122 
DISL,ioos:station:DISL:KATA:1,2011-12-04T12:00:00Z,30.2583,-88.2131,4.397,28.97,1111122 
DISL,ioos:station:DISL:KATA:1,2011-12-04T12:30:00Z,30.2583,-88.2131,4.394,28.96,1111122 
DISL,ioos:station:DISL:KATA:1,2011-12-04T13:00:00Z,30.2583,-88.2131,4.38,28.96,1111122 
DISL,ioos:station:DISL:KATA:1,2011-12-04T13:30:00Z,30.2583,-88.2131,4.392,28.95,1111122 
DISL,ioos:station:DISL:KATA:1,2011-12-04T14:00:00Z,30.2583,-88.2131,4.391,28.93,1111122 
DISL,ioos:station:DISL:KATA:1,2011-12-04T14:30:00Z,30.2583,-88.2131,4.404,28.91,1111122 
DISL,ioos:station:DISL:KATA:1,2011-12-04T15:00:00Z,30.2583,-88.2131,4.411,28.92,1111122 
DISL,ioos:station:DISL:KATA:1,2011-12-04T15:30:00Z,30.2583,-88.2131,4.419,28.89,1111122 
DISL,ioos:station:DISL:KATA:1,2011-12-04T16:00:00Z,30.2583,-88.2131,4.434,28.72,1111122 
DISL,ioos:station:DISL:KATA:1,2011-12-04T16:30:00Z,30.2583,-88.2131,4.458,28.84,1111122 
DISL,ioos:station:DISL:KATA:1,2011-12-04T17:00:00Z,30.2583,-88.2131,4.486,28.77,1111122 
DISL,ioos:station:DISL:KATA:1,2011-12-04T17:30:00Z,30.2583,-88.2131,4.496,28.75,1111122 
DISL,ioos:station:DISL:KATA:1,2011-12-04T18:00:00Z,30.2583,-88.2131,4.508,28.6,1111122 
DISL,ioos:station:DISL:KATA:1,2011-12-04T18:30:00Z,30.2583,-88.2131,4.531,28.63,1111122 
DISL,ioos:station:DISL:KATA:1,2011-12-04T19:00:00Z,30.2583,-88.2131,4.545,28.67,1111122 
DISL,ioos:station:DISL:KATA:1,2011-12-04T19:30:00Z,30.2583,-88.2131,4.557,28.68,1111122 
DISL,ioos:station:DISL:KATA:1,2011-12-04T20:00:00Z,30.2583,-88.2131,4.583,28.69,1111122 
DISL,ioos:station:DISL:KATA:1,2011-12-04T20:30:00Z,30.2583,-88.2131,4.602,28.7,1111122 
DISL,ioos:station:DISL:KATA:1,2011-12-04T21:00:00Z,30.2583,-88.2131,4.618,28.71,1111122 
DISL,ioos:station:DISL:KATA:1,2011-12-04T21:30:00Z,30.2583,-88.2131,4.645,28.74,1111122 
DISL,ioos:station:DISL:KATA:1,2011-12-04T22:00:00Z,30.2583,-88.2131,4.665,28.8,1111122 
DISL,ioos:station:DISL:KATA:1,2011-12-04T22:30:00Z,30.2583,-88.2131,4.685,28.83,1111122 
DISL,ioos:station:DISL:KATA:1,2011-12-04T23:00:00Z,30.2583,-88.2131,4.688,28.75,1111122 
DISL,ioos:station:DISL:KATA:1,2011-12-04T23:30:00Z,30.2583,-88.2131,4.691,28.83,1111122 
DISL,ioos:station:DISL:KATA:1,2011-12-05T00:00:00Z,30.2583,-88.2131,4.695,28.82,1111122 
DISL,ioos:station:DISL:KATA:1,2011-12-05T00:30:00Z,30.2583,-88.2131,4.692,28.59,1111122 
DISL,ioos:station:DISL:KATA:1,2011-12-05T01:00:00Z,30.2583,-88.2131,4.704,28.52,1111122 
DISL,ioos:station:DISL:KATA:1,2011-12-05T01:30:00Z,30.2583,-88.2131,4.691,27.93,1111122 
DISL,ioos:station:DISL:KATA:1,2011-12-05T02:00:00Z,30.2583,-88.2131,4.706,28.56,1111122 
DISL,ioos:station:DISL:KATA:1,2011-12-05T02:30:00Z,30.2583,-88.2131,4.702,28.31,1111122 
DISL,ioos:station:DISL:KATA:1,2011-12-05T03:00:00Z,30.2583,-88.2131,4.692,28.59,1111122 
DISL,ioos:station:DISL:KATA:1,2011-12-05T03:30:00Z,30.2583,-88.2131,4.678,28.63,1111122 
DISL,ioos:station:DISL:KATA:1,2011-12-05T04:00:00Z,30.2583,-88.2131,4.656,28.63,1111122 
DISL,ioos:station:DISL:KATA:1,2011-12-05T04:30:00Z,30.2583,-88.2131,4.63,28.64,1111122 
DISL,ioos:station:DISL:KATA:1,2011-12-05T05:00:00Z,30.2583,-88.2131,4.596,28.64,1111122 
DISL,ioos:station:DISL:KATA:1,2011-12-05T05:30:00Z,30.2583,-88.2131,4.576,28.66,1111122 
DISL,ioos:station:DISL:KATA:1,2011-12-05T06:00:00Z,30.2583,-88.2131,4.552,28.66,1111122 
DISL,ioos:station:DISL:KATA:1,2011-12-05T06:30:00Z,30.2583,-88.2131,4.531,28.66,1111122 
DISL,ioos:station:DISL:KATA:1,2011-12-05T07:00:00Z,30.2583,-88.2131,4.521,28.66,1111122 
DISL,ioos:station:DISL:KATA:1,2011-12-05T07:30:00Z,30.2583,-88.2131,4.501,28.66,1111122 
DISL,ioos:station:DISL:KATA:1,2011-12-05T08:00:00Z,30.2583,-88.2131,4.49,28.66,1111122 
DISL,ioos:station:DISL:KATA:1,2011-12-05T08:30:00Z,30.2583,-88.2131,4.481,27.29,1111122 
DISL,ioos:station:DISL:KATA:1,2011-12-05T09:00:00Z,30.2583,-88.2131,4.474,28.53,1111122 
DISL,ioos:station:DISL:KATA:1,2011-12-05T09:30:00Z,30.2583,-88.2131,4.468,28.5,1111122 
DISL,ioos:station:DISL:KATA:1,2011-12-05T10:00:00Z,30.2583,-88.2131,4.464,28.4,1111122 
DISL,ioos:station:DISL:KATA:1,2011-12-05T10:30:00Z,30.2583,-88.2131,4.457,28.6,1111122 
DISL,ioos:station:DISL:KATA:1,2011-12-05T11:00:00Z,30.2583,-88.2131,4.449,28.61,1111122 
DISL,ioos:station:DISL:KATA:1,2011-12-05T11:30:00Z,30.2583,-88.2131,4.442,28.58,1111122 
DISL,ioos:station:DISL:KATA:1,2011-12-05T12:00:00Z,30.2583,-88.2131,4.455,28.46,1111122 
DISL,ioos:station:DISL:KATA:1,2011-12-05T12:30:00Z,30.2583,-88.2131,4.454,28.5,1111122 
DISL,ioos:station:DISL:KATA:1,2011-12-05T13:00:00Z,30.2583,-88.2131,4.475,28.51,1111122 
DISL,ioos:station:DISL:KATA:1,2011-12-05T13:30:00Z,30.2583,-88.2131,4.487,28.22,1111122 
DISL,ioos:station:DISL:KATA:1,2011-12-05T14:00:00Z,30.2583,-88.2131,4.508,28.52,1111122 
DISL,ioos:station:DISL:KATA:1,2011-12-05T14:30:00Z,30.2583,-88.2131,4.533,28.53,1111122 
DISL,ioos:station:DISL:KATA:1,2011-12-05T15:00:00Z,30.2583,-88.2131,4.555,28.51,1111122 
DISL,ioos:station:DISL:KATA:1,2011-12-05T15:30:00Z,30.2583,-88.2131,4.565,28.55,1111122 
DISL,ioos:station:DISL:KATA:1,2011-12-05T16:00:00Z,30.2583,-88.2131,4.573,28.53,1111122 
DISL,ioos:station:DISL:KATA:1,2011-12-05T16:30:00Z,30.2583,-88.2131,4.572,28.62,1111122 
DISL,ioos:station:DISL:KATA:1,2011-12-05T17:00:00Z,30.2583,-88.2131,4.6,28.62,1111122 
DISL,ioos:station:DISL:KATA:1,2011-12-05T17:30:00Z,30.2583,-88.2131,4.599,28.6,1111122 
DISL,ioos:station:DISL:KATA:1,2011-12-05T18:00:00Z,30.2583,-88.2131,4.623,28.7,1111122 
DISL,ioos:station:DISL:KATA:1,2011-12-05T18:30:00Z,30.2583,-88.2131,4.664,28.71,1111122 
DISL,ioos:station:DISL:KATA:1,2011-12-05T19:00:00Z,30.2583,-88.2131,4.622,28.68,1111122 
DISL,ioos:station:DISL:KATA:1,2011-12-05T19:30:00Z,30.2583,-88.2131,4.636,28.71,1111122 
DISL,ioos:station:DISL:KATA:1,2011-12-05T20:00:00Z,30.2583,-88.2131,4.661,28.63,1111122 
DISL,ioos:station:DISL:KATA:1,2011-12-05T20:30:00Z,30.2583,-88.2131,4.684,28.65,1111122 
DISL,ioos:station:DISL:KATA:1,2011-12-05T21:00:00Z,30.2583,-88.2131,4.696,28.66,1111122 
DISL,ioos:station:DISL:KATA:1,2011-12-05T21:30:00Z,30.2583,-88.2131,4.723,28.63,1111122 
DISL,ioos:station:DISL:KATA:1,2011-12-05T22:00:00Z,30.2583,-88.2131,4.729,28.61,1111122 
DISL,ioos:station:DISL:KATA:1,2011-12-05T22:30:00Z,30.2583,-88.2131,4.743,28.63,1111122 
DISL,ioos:station:DISL:KATA:1,2011-12-05T23:00:00Z,30.2583,-88.2131,4.759,28.61,1111122 
DISL,ioos:station:DISL:KATA:1,2011-12-05T23:30:00Z,30.2583,-88.2131,4.756,28.64,1111122 
DISL,ioos:station:DISL:KATA:1,2011-12-06T00:00:00Z,30.2583,-88.2131,4.756,28.61,1111122 
DISL,ioos:station:DISL:KATA:1,2011-12-06T00:30:00Z,30.2583,-88.2131,4.745,28.63,1111122 
DISL,ioos:station:DISL:KATA:1,2011-12-06T01:00:00Z,30.2583,-88.2131,4.739,28.61,1111122 
DISL,ioos:station:DISL:KATA:1,2011-12-06T01:30:00Z,30.2583,-88.2131,4.71,28.6,1111122 
DISL,ioos:station:DISL:KATA:1,2011-12-06T02:00:00Z,30.2583,-88.2131,4.691,28.63,1111122 
DISL,ioos:station:DISL:KATA:1,2011-12-06T02:30:00Z,30.2583,-88.2131,4.68,28.65,1111122 
DISL,ioos:station:DISL:KATA:1,2011-12-06T03:00:00Z,30.2583,-88.2131,4.665,28.59,1111122 
DISL,ioos:station:DISL:KATA:1,2011-12-06T03:30:00Z,30.2583,-88.2131,4.653,28.58,1111122 
DISL,ioos:station:DISL:KATA:1,2011-12-06T04:00:00Z,30.2583,-88.2131,4.639,28.63,1111122 
DISL,ioos:station:DISL:KATA:1,2011-12-06T04:30:00Z,30.2583,-88.2131,4.615,28.57,1111122 
DISL,ioos:station:DISL:KATA:1,2011-12-06T05:00:00Z,30.2583,-88.2131,4.575,28.45,1111122 
DISL,ioos:station:DISL:KATA:1,2011-12-06T05:30:00Z,30.2583,-88.2131,4.541,28.41,1111122 
DISL,ioos:station:DISL:KATA:1,2011-12-06T06:00:00Z,30.2583,-88.2131,4.495,28.47,1111122 
DISL,ioos:station:DISL:KATA:1,2011-12-06T06:30:00Z,30.2583,-88.2131,4.455,28.51,1111122 
DISL,ioos:station:DISL:KATA:1,2011-12-06T07:00:00Z,30.2583,-88.2131,4.418,28.48,1111122 
DISL,ioos:station:DISL:KATA:1,2011-12-06T07:30:00Z,30.2583,-88.2131,4.399,28.46,1111122 
DISL,ioos:station:DISL:KATA:1,2011-12-06T08:00:00Z,30.2583,-88.2131,4.37,27.55,1111122 
DISL,ioos:station:DISL:KATA:1,2011-12-06T08:30:00Z,30.2583,-88.2131,4.35,28.34,1111122 
DISL,ioos:station:DISL:KATA:1,2011-12-06T09:00:00Z,30.2583,-88.2131,4.328,28.43,1111122 
DISL,ioos:station:DISL:KATA:1,2011-12-06T09:30:00Z,30.2583,-88.2131,4.309,28.37,1111122 
DISL,ioos:station:DISL:KATA:1,2011-12-06T10:00:00Z,30.2583,-88.2131,4.3,28.32,1111122 
DISL,ioos:station:DISL:KATA:1,2011-12-06T10:30:00Z,30.2583,-88.2131,4.295,28.28,1111122 
DISL,ioos:station:DISL:KATA:1,2011-12-06T11:00:00Z,30.2583,-88.2131,4.305,28.41,1111122 
DISL,ioos:station:DISL:KATA:1,2011-12-06T11:30:00Z,30.2583,-88.2131,4.303,28.39,1111122 
DISL,ioos:station:DISL:KATA:1,2011-12-06T12:00:00Z,30.2583,-88.2131,4.309,28.37,1111122 
DISL,ioos:station:DISL:KATA:1,2011-12-06T12:30:00Z,30.2583,-88.2131,4.317,28.41,1111122 
DISL,ioos:station:DISL:KATA:1,2011-12-06T13:00:00Z,30.2583,-88.2131,4.336,28.41,1111122 
DISL,ioos:station:DISL:KATA:1,2011-12-06T13:30:00Z,30.2583,-88.2131,4.357,28.4,1111122 
DISL,ioos:station:DISL:KATA:1,2011-12-06T14:00:00Z,30.2583,-88.2131,4.375,28.37,1111122 